Location: Unspecified
(0.0000°N, 0.0000°E)
Time: 06:16:40
(UTC+00:00)

N. Korean satellite - Pass Details

Date: 03 December 2022
Orbit: 421 x 454 km, 97.3° (Epoch: 29 November)

Event Time Altitude Azimuth Distance (km) Brightness Sun altitude
Rises 04:19:12 0° 35° (NE) 2,419 10.2 -20.9°
Reaches altitude 10° 04:21:36 10° 53° (NE) 1,547 9.5 -20.3°
Maximum altitude 04:24:04 19° 101° (E) 1,091 9.2 -19.8°
Drops below altitude 10° 04:26:31 10° 149° (SSE) 1,540 9.9 -19.2°
Sets 04:28:54 0° 167° (SSE) 2,404 10.6 -18.7°
